�N����,����,�~����,�C��,���x,�C��,����,���ϕ���,�ő�u�ԕ���,�ő厞����,���˗�,�I�_���x,�n�����x,�ő啗���N��,DTYPE
"17/03/17","00:10",0.0,1.8,92.5,1013.3,312.4,2.3,3.6,319.0,0.00,0.8,6.6,"00:07:14",1
"17/03/17","00:20",0.0,1.9,92.4,1013.3,299.7,2.3,3.9,320.1,0.00,0.8,6.7,"00:15:34",1
"17/03/17","00:30",0.0,1.9,92.3,1013.3,279.1,1.5,2.1,275.8,0.00,0.8,6.6,"00:21:28",1
"17/03/17","00:40",0.0,2.0,92.4,1013.3,322.7,2.1,3.1,337.1,0.00,0.9,6.5,"00:38:00",1
"17/03/17","00:50",0.0,2.3,91.9,1013.3,312.4,2.3,3.5,313.0,0.00,1.2,6.5,"00:47:28",1
"17/03/17","01:00",0.0,2.4,91.5,1013.5,304.3,2.1,3.2,327.6,0.00,1.2,6.6,"00:56:40",1
"17/03/17","01:10",0.0,2.6,90.8,1013.3,334.2,2.2,4.5,327.1,0.00,1.3,6.5,"01:00:08",1
"17/03/17","01:20",0.0,2.5,90.8,1013.5,326.9,2.5,3.7,329.9,0.00,1.2,6.7,"01:14:40",1
"17/03/17","01:30",0.0,2.9,91.1,1013.5,321.3,2.8,4.4,316.3,0.00,1.6,6.6,"01:25:44",1
"17/03/17","01:40",0.0,3.1,90.1,1013.8,297.8,2.5,3.6,309.9,0.00,1.7,6.6,"01:30:16",1
"17/03/17","01:50",0.0,3.0,90.1,1013.8,308.3,2.5,3.5,316.4,0.00,1.6,6.5,"01:40:02",1
"17/03/17","02:00",0.0,3.1,90.2,1013.8,316.2,3.2,4.2,315.3,0.00,1.7,6.5,"01:56:56",1
"17/03/17","02:10",0.0,3.0,90.4,1013.8,318.6,3.1,4.9,319.1,0.00,1.6,6.6,"02:06:32",1
"17/03/17","02:20",0.0,2.9,90.7,1013.8,312.1,2.7,3.9,321.3,0.00,1.6,6.6,"02:12:32",1
"17/03/17","02:30",0.0,2.6,90.7,1013.8,294.4,2.0,3.3,312.1,0.00,1.3,6.4,"02:20:24",1
"17/03/17","02:40",0.0,2.2,91.2,1013.8,290.9,1.6,2.2,306.5,0.00,1.0,6.5,"02:37:04",1
"17/03/17","02:50",0.0,2.1,92.2,1013.5,313.7,2.3,3.6,323.2,0.00,1.0,6.5,"02:45:46",1
"17/03/17","03:00",0.0,2.1,92.9,1013.5,312.4,2.3,3.4,318.9,0.00,1.1,6.4,"02:50:56",1
"17/03/17","03:10",0.0,2.3,93.5,1013.3,316.8,2.8,3.7,307.7,0.00,1.4,6.2,"03:05:28",1
"17/03/17","03:20",0.0,2.4,93.5,1013.3,305.2,2.2,3.6,324.9,0.00,1.5,6.3,"03:19:04",1
"17/03/17","03:30",0.0,2.3,93.3,1013.5,306.1,1.8,3.3,321.2,0.00,1.4,6.3,"03:22:48",1
"17/03/17","03:40",0.0,2.0,93.3,1013.3,271.1,1.0,1.3,264.8,0.00,1.1,6.4,"03:30:56",1
"17/03/17","03:50",0.0,1.8,93.7,1013.5,296.6,2.1,2.8,318.0,0.00,0.9,6.1,"03:42:16",1
"17/03/17","04:00",0.0,1.6,94.2,1013.0,320.3,2.2,3.1,317.9,0.00,0.8,6.1,"03:59:46",1
"17/03/17","04:10",0.0,1.6,94.9,1013.3,318.1,2.8,4.0,323.5,0.00,0.9,6.0,"04:01:38",1
"17/03/17","04:20",0.0,1.9,95.3,1013.3,327.6,3.2,4.9,321.1,0.00,1.3,6.1,"04:10:34",1
"17/03/17","04:30",0.0,1.9,95.0,1013.0,321.8,2.7,3.9,330.5,0.00,1.2,6.2,"04:23:46",1
"17/03/17","04:40",0.0,1.8,95.2,1013.3,316.9,3.4,4.9,325.1,0.00,1.2,6.2,"04:39:32",1
"17/03/17","04:50",0.0,1.8,95.1,1013.5,323.9,3.9,5.6,341.3,0.00,1.1,5.9,"04:44:56",1
"17/03/17","05:00",0.0,1.9,94.7,1013.8,309.8,3.7,5.7,326.2,0.00,1.2,5.9,"04:50:26",1
"17/03/17","05:10",0.0,1.5,94.8,1013.5,297.6,2.8,3.9,312.7,0.00,0.8,6.0,"05:08:42",1
"17/03/17","05:20",0.0,1.4,95.0,1013.5,299.0,2.8,4.3,328.3,0.00,0.7,6.1,"05:14:54",1
"17/03/17","05:30",0.0,1.4,95.3,1013.8,297.0,2.8,4.3,325.9,0.00,0.8,5.8,"05:24:16",1
"17/03/17","05:40",0.0,1.2,95.3,1014.0,291.6,2.0,2.8,295.5,0.00,0.6,5.9,"05:30:16",1
"17/03/17","05:50",0.0,1.0,95.5,1013.8,314.6,2.7,3.4,321.6,0.00,0.4,5.9,"05:43:30",1
"17/03/17","06:00",0.0,0.9,95.8,1014.0,303.6,2.7,3.2,313.8,0.00,0.3,5.9,"05:58:40",1
"17/03/17","06:10",0.0,0.8,96.1,1014.2,312.7,2.3,3.5,328.9,0.00,0.3,5.7,"06:00:10",1
"17/03/17","06:20",0.0,0.7,96.2,1014.2,312.2,1.8,3.7,331.5,0.00,0.2,5.6,"06:19:54",1
"17/03/17","06:30",0.0,0.7,96.6,1014.2,307.6,2.1,3.3,316.5,0.00,0.3,5.7,"06:27:30",1
"17/03/17","06:40",0.0,0.8,96.6,1014.0,302.8,1.6,2.7,317.9,0.00,0.4,5.8,"06:39:42",1
"17/03/17","06:50",0.0,0.9,96.7,1014.2,320.8,2.3,3.1,318.1,0.00,0.5,5.7,"06:42:36",1
"17/03/17","07:00",0.0,1.3,96.8,1014.2,289.2,0.7,2.4,311.7,0.01,0.9,5.6,"06:50:56",1
"17/03/17","07:10",0.0,1.6,96.1,1014.7,260.5,0.7,1.7,260.1,0.02,1.1,5.7,"07:02:56",1
"17/03/17","07:20",0.0,2.4,94.5,1014.7,248.4,0.3,0.9,280.7,0.03,1.6,5.8,"07:10:56",1
"17/03/17","07:30",0.0,2.9,92.8,1014.7,264.1,0.7,1.4,263.4,0.06,1.9,5.9,"07:29:12",1
"17/03/17","07:40",0.0,4.2,89.2,1015.2,298.7,0.8,1.8,334.8,0.09,2.6,5.8,"07:38:16",1
"17/03/17","07:50",0.0,4.5,87.4,1015.4,335.5,1.1,1.9,336.6,0.10,2.6,5.8,"07:44:32",1
"17/03/17","08:00",0.0,4.8,86.8,1015.9,311.4,1.5,2.6,320.5,0.09,2.8,5.8,"07:52:48",1
"17/03/17","08:10",0.0,4.8,85.0,1016.1,321.8,3.2,4.9,336.0,0.13,2.5,6.0,"08:06:00",1
"17/03/17","08:20",0.0,5.0,84.7,1016.6,328.5,2.7,4.3,321.4,0.09,2.7,6.2,"08:14:16",1
"17/03/17","08:30",0.0,6.2,81.4,1016.6,347.9,1.0,2.5,336.0,0.20,3.3,6.1,"08:21:12",1
"17/03/17","08:40",0.0,6.3,81.6,1017.1,113.7,0.8,1.7,113.2,0.19,3.4,6.4,"08:30:16",1
"17/03/17","08:50",0.0,5.7,80.4,1016.8,134.3,1.0,2.2,131.2,0.13,2.6,6.4,"08:45:06",1
"17/03/17","09:00",0.0,6.9,79.1,1016.8,129.4,1.1,2.6,120.8,0.26,3.6,6.7,"08:51:44",1
"17/03/17","09:10",0.0,7.3,76.1,1016.8,163.5,1.2,2.6,133.0,0.30,3.4,6.9,"09:08:16",1
"17/03/17","09:20",0.0,7.3,73.3,1017.1,101.4,0.8,2.5,112.8,0.28,2.9,6.8,"09:10:24",1
"17/03/17","09:30",0.0,8.8,72.8,1017.1,289.1,0.8,1.6,247.4,0.38,4.2,7.2,"09:26:48",1
"17/03/17","09:40",0.0,8.6,68.7,1017.1,41.4,1.1,2.1,310.4,0.28,3.2,7.4,"09:34:00",1
"17/03/17","09:50",0.0,9.0,69.6,1016.8,119.4,1.5,3.1,120.8,0.42,3.8,7.5,"09:47:52",1
"17/03/17","10:00",0.0,8.8,64.5,1016.6,194.7,1.2,2.5,116.8,0.22,2.5,7.8,"09:50:08",1
"17/03/17","10:10",0.0,9.1,65.2,1016.6,156.5,0.7,2.0,107.6,0.17,3.0,7.9,"10:07:04",1
"17/03/17","10:20",0.0,9.2,61.8,1016.6,282.2,1.0,3.1,245.0,0.16,2.3,8.0,"10:19:28",1
"17/03/17","10:30",0.0,9.1,62.0,1016.4,311.0,1.8,4.1,320.6,0.14,2.3,8.2,"10:26:08",1
"17/03/17","10:40",0.0,9.2,63.3,1016.4,280.7,2.1,3.5,297.4,0.13,2.6,8.3,"10:37:04",1
"17/03/17","10:50",0.0,9.2,58.4,1016.4,322.7,2.5,6.0,333.7,0.17,1.5,8.2,"10:45:28",1
"17/03/17","11:00",0.0,9.4,61.2,1016.4,277.0,1.8,4.7,330.1,0.19,2.4,8.2,"10:52:40",1
"17/03/17","11:10",0.0,10.3,61.7,1016.1,278.8,1.1,2.8,31.1,0.19,3.3,8.4,"11:09:52",1
"17/03/17","11:20",0.0,10.2,56.9,1015.9,351.4,1.5,3.3,332.1,0.28,2.1,8.4,"11:12:24",1
"17/03/17","11:30",0.0,10.0,59.2,1015.9,349.4,2.2,4.3,348.9,0.22,2.5,8.5,"11:27:12",1
"17/03/17","11:40",0.0,10.9,58.5,1015.9,330.7,2.5,4.2,324.0,0.35,3.1,8.7,"11:30:40",1
"17/03/17","11:50",0.0,10.5,55.9,1016.1,348.5,2.5,5.7,329.6,0.42,2.1,8.7,"11:43:12",1
"17/03/17","12:00",0.0,10.5,57.3,1015.9,337.9,2.1,3.9,336.7,0.16,2.5,9.1,"11:58:08",1
"17/03/17","12:10",0.0,10.8,56.8,1015.4,350.5,2.0,5.4,335.4,0.24,2.6,9.0,"12:03:20",1
"17/03/17","12:20",0.0,10.3,56.1,1015.2,350.5,2.1,4.8,332.2,0.14,2.0,9.2,"12:10:08",1
"17/03/17","12:30",0.0,10.3,56.9,1015.2,342.9,2.6,5.0,339.9,0.13,2.2,9.2,"12:22:32",1
"17/03/17","12:40",0.0,11.4,55.4,1015.2,349.6,1.8,4.2,328.6,0.36,2.8,9.2,"12:32:00",1
"17/03/17","12:50",0.0,11.1,54.3,1014.7,36.4,1.1,2.8,92.3,0.23,2.3,9.3,"12:48:24",1
"17/03/17","13:00",0.0,10.6,54.3,1014.9,1.2,2.0,4.7,344.2,0.14,1.8,9.3,"12:59:36",1
"17/03/17","13:10",0.0,11.5,51.3,1014.7,353.5,2.2,5.5,341.0,0.39,1.8,9.4,"13:09:36",1
"17/03/17","13:20",0.0,10.7,58.5,1014.9,356.9,2.6,4.9,330.0,0.09,2.9,9.4,"13:19:52",1
"17/03/17","13:30",0.0,9.9,59.4,1014.7,1.4,2.6,5.8,311.7,0.09,2.4,9.4,"13:21:28",1
"17/03/17","13:40",0.0,10.6,56.9,1014.7,358.3,2.7,4.5,322.0,0.22,2.5,9.5,"13:35:12",1
"17/03/17","13:50",0.0,11.1,56.9,1014.2,351.4,3.4,6.8,340.8,0.40,2.9,9.5,"13:47:52",1
"17/03/17","14:00",0.0,10.4,59.8,1014.2,347.7,3.5,7.8,336.2,0.16,3.0,9.5,"13:53:04",1
"17/03/17","14:10",0.0,11.8,56.4,1014.0,337.0,2.7,6.6,330.5,0.35,3.5,9.7,"14:08:56",1
"17/03/17","14:20",0.0,11.7,55.8,1014.0,335.0,3.6,7.8,322.3,0.39,3.2,9.5,"14:11:44",1
"17/03/17","14:30",0.0,11.6,54.8,1014.2,9.8,1.6,3.4,326.5,0.32,2.9,9.7,"14:25:20",1
"17/03/17","14:40",0.0,13.0,50.8,1014.0,352.9,2.1,4.7,343.0,0.53,3.1,9.9,"14:38:48",1
"17/03/17","14:50",0.0,11.6,52.9,1014.2,353.4,2.6,6.4,358.2,0.33,2.4,10.0,"14:48:56",1
"17/03/17","15:00",0.0,11.4,50.6,1014.2,352.1,3.9,8.8,338.5,0.22,1.6,10.3,"14:59:14",1
"17/03/17","15:10",0.0,12.7,49.1,1014.2,349.7,3.2,9.4,346.8,0.47,2.3,10.2,"15:09:52",1
"17/03/17","15:20",0.0,11.8,48.9,1014.5,345.7,3.7,6.0,6.4,0.35,1.5,10.1,"15:15:36",1
"17/03/17","15:30",0.0,10.9,52.6,1014.5,341.2,3.4,8.2,337.1,0.07,1.6,10.2,"15:23:44",1
"17/03/17","15:40",0.0,11.7,50.8,1014.5,348.0,3.7,8.2,331.1,0.35,1.9,10.0,"15:30:32",1
"17/03/17","15:50",0.0,12.1,49.2,1014.7,338.0,3.6,9.0,340.8,0.32,1.8,10.1,"15:49:52",1
"17/03/17","16:00",0.0,11.4,51.6,1014.2,340.9,4.1,8.3,333.1,0.21,1.8,10.3,"15:51:12",1
"17/03/17","16:10",0.0,11.6,50.8,1014.7,345.7,3.5,8.7,319.9,0.29,1.8,10.2,"16:08:00",1
"17/03/17","16:20",0.0,11.4,50.4,1014.7,332.0,4.6,9.4,320.0,0.18,1.5,10.3,"16:18:40",1
"17/03/17","16:30",0.0,10.7,53.4,1014.7,351.9,2.5,6.5,309.3,0.04,1.7,10.1,"16:27:36",1
"17/03/17","16:40",0.0,10.5,55.0,1014.9,348.4,3.0,7.0,331.9,0.08,1.9,10.2,"16:35:04",1
"17/03/17","16:50",0.0,10.6,53.0,1014.7,329.2,3.9,8.3,338.7,0.09,1.5,10.0,"16:46:48",1
"17/03/17","17:00",0.0,10.2,53.5,1014.9,346.2,2.7,5.1,0.0,0.05,1.2,10.0,"16:58:40",1
"17/03/17","17:10",0.0,10.2,53.0,1015.2,348.5,3.4,7.3,341.5,0.05,1.1,9.9,"17:03:36",1
"17/03/17","17:20",0.0,10.3,54.3,1015.2,340.0,2.7,5.4,335.7,0.05,1.5,10.0,"17:18:48",1
"17/03/17","17:30",0.0,10.4,53.6,1015.2,327.9,3.4,5.2,318.2,0.04,1.4,9.6,"17:26:24",1
"17/03/17","17:40",0.0,10.2,56.0,1015.4,335.2,3.4,5.8,340.7,0.02,1.9,9.7,"17:30:32",1
"17/03/17","17:50",0.0,9.5,58.0,1015.9,341.9,3.9,6.6,322.4,0.01,1.7,9.6,"17:48:00",1
"17/03/17","18:00",0.0,9.0,59.3,1015.9,343.0,3.4,6.3,345.4,0.00,1.5,9.4,"17:55:20",1
"17/03/17","18:10",0.0,8.6,61.0,1015.9,337.8,3.5,6.4,344.0,0.00,1.6,9.3,"18:00:32",1
"17/03/17","18:20",0.0,8.3,61.2,1016.1,338.9,3.0,5.2,343.8,0.00,1.3,9.2,"18:11:52",1
"17/03/17","18:30",0.0,8.0,62.4,1016.1,325.6,2.6,4.2,317.9,0.00,1.3,9.4,"18:25:04",1
"17/03/17","18:40",0.0,7.6,63.7,1016.1,325.6,2.6,3.9,323.7,0.00,1.2,9.3,"18:36:56",1
"17/03/17","18:50",0.0,6.9,66.6,1016.1,329.5,2.3,2.9,316.8,0.00,1.2,9.1,"18:44:40",1
"17/03/17","19:00",0.0,6.3,70.6,1016.4,327.0,2.3,3.5,337.0,0.00,1.4,9.0,"18:57:44",1
"17/03/17","19:10",0.0,5.7,72.9,1016.4,329.9,2.3,2.9,327.7,0.00,1.3,9.0,"19:00:48",1
"17/03/17","19:20",0.0,5.3,75.2,1016.1,324.0,2.5,3.4,327.8,0.00,1.3,8.9,"19:17:44",1
"17/03/17","19:30",0.0,5.0,77.0,1016.4,324.9,2.5,4.0,322.5,0.00,1.3,8.7,"19:20:08",1
"17/03/17","19:40",0.0,4.8,78.3,1016.4,320.8,2.3,3.2,317.8,0.00,1.4,8.6,"19:36:32",1
"17/03/17","19:50",0.0,4.3,79.9,1016.1,310.0,1.7,2.4,321.8,0.00,1.2,8.6,"19:45:44",1
"17/03/17","20:00",0.0,4.1,81.2,1016.6,302.8,1.5,2.1,311.4,0.00,1.2,8.2,"19:55:20",1
"17/03/17","20:10",0.0,4.1,82.7,1016.1,310.3,2.2,4.3,313.4,0.00,1.5,8.5,"20:07:12",1
"17/03/17","20:20",0.0,4.1,83.2,1016.8,322.2,2.2,3.5,326.0,0.00,1.5,8.4,"20:12:48",1
"17/03/17","20:30",0.0,3.9,83.4,1016.4,316.3,2.2,3.5,321.3,0.00,1.4,8.0,"20:25:04",1
"17/03/17","20:40",0.0,3.8,84.1,1016.1,298.0,2.0,3.6,312.7,0.00,1.4,8.1,"20:36:40",1
"17/03/17","20:50",0.0,3.5,84.7,1016.4,305.3,1.6,2.1,316.8,0.00,1.2,8.0,"20:43:36",1
"17/03/17","21:00",0.0,3.3,85.4,1015.9,304.6,1.6,2.6,306.4,0.00,1.1,7.8,"20:57:30",1
"17/03/17","21:10",0.0,3.1,86.4,1016.4,299.9,1.7,2.6,315.5,0.00,1.1,7.7,"21:00:40",1
"17/03/17","21:20",0.0,3.1,87.1,1016.4,301.9,1.7,3.6,316.5,0.00,1.2,7.7,"21:19:10",1
"17/03/17","21:30",0.0,3.1,87.4,1016.4,305.3,1.5,3.2,329.3,0.00,1.3,7.7,"21:20:08",1
"17/03/17","21:40",0.0,2.9,87.7,1016.6,328.2,0.8,2.6,312.3,0.00,1.1,7.5,"21:39:42",1
"17/03/17","21:50",0.0,2.7,88.7,1016.6,307.4,2.2,3.7,310.4,0.00,1.1,7.3,"21:45:42",1
"17/03/17","22:00",0.0,2.9,89.3,1016.8,291.2,2.3,3.7,304.0,0.00,1.4,7.5,"21:52:48",1
"17/03/17","22:10",0.0,2.9,89.1,1016.6,291.0,1.7,2.7,324.0,0.00,1.3,7.3,"22:04:40",1
"17/03/17","22:20",0.0,2.7,89.1,1016.8,304.3,2.0,2.9,314.8,0.00,1.1,7.3,"22:17:22",1
"17/03/17","22:30",0.0,2.5,89.1,1017.1,316.1,1.8,2.7,321.9,0.00,0.9,7.3,"22:25:28",1
"17/03/17","22:40",0.0,2.0,89.4,1016.8,299.5,1.6,2.8,305.3,0.00,0.5,7.3,"22:31:40",1
"17/03/17","22:50",0.0,1.8,90.9,1017.1,298.6,2.0,2.6,315.1,0.00,0.5,7.2,"22:43:08",1
"17/03/17","23:00",0.0,1.8,92.0,1016.8,283.9,2.1,2.7,276.2,0.00,0.7,6.8,"22:59:52",1
"17/03/17","23:10",0.0,2.0,92.0,1017.1,295.6,2.1,2.6,299.6,0.00,0.9,7.0,"23:03:12",1
"17/03/17","23:20",0.0,1.9,92.0,1017.3,296.4,2.1,3.3,327.2,0.00,0.8,6.9,"23:14:44",1
"17/03/17","23:30",0.0,2.5,92.5,1017.3,304.5,3.5,5.7,315.7,0.00,1.4,6.9,"23:27:00",1
"17/03/17","23:40",0.0,3.0,90.1,1016.8,324.7,4.1,5.9,320.0,0.00,1.6,6.8,"23:31:04",1
"17/03/17","23:50",0.0,2.9,88.8,1017.1,295.7,2.2,3.5,314.2,0.00,1.3,6.9,"23:45:44",1
"17/03/17","24:00",0.0,2.8,88.2,1017.8,285.6,2.0,3.4,321.8,0.00,1.1,6.8,"23:50:02",1
